User: anonymous   Login
Location: Waldport
(44.4270°N, 124.0680°W)
Time: 07:35:02
(UTC-07:00)
Language:

Meteor 1-11 - Orbit

View from above orbital plane
View from above orbital plane
View from above satellite
View from above satellite

Ground track
Ground track

The orbit data is extracted from the following two-line orbital elements,

1  5917U 72022A   19109.09331889  .00000143  00000-0  75167-4 0  9994
2  5917  81.2217 312.5998 0031036 151.1988 209.0904 14.08679599416359
Epoch (UTC): 19 April 2019 02:14:22
Eccentricity: 0.0031036
inclination: 81.2217°
perigee height: 841 km
apogee height: 886 km
right ascension of ascending node: 312.5998°
argument of perigee: 151.1988°
revolutions per day: 14.08679599
mean anomaly at epoch: 209.0904°
orbit number at epoch: 41635

The dashed part of the orbit path shows where the satellite is in the earth's shadow,  

DLR